• In Germany
  • List of Countries
  • For 7 days
  • Water Temperature
  • Satellite Maps
  • Weather Map
  • Weather Widgets
  • user-avatar
    Login

    Hourly Weather Adelaide

    Today, 19 January, Friday

    Time Temperature Precipitation Wind Pressure Humidity
    00:00 +33°C° 0 mm 3 mps 753 mmHg 14%
    01:00 +33°C° 0 mm 3 mps 752 mmHg 14%
    02:00 +31°C° 0 mm 3 mps 752 mmHg 14%
    03:00 +31°C° 0 mm 3 mps 752 mmHg 14%
    04:00 +33°C° 0 mm 3 mps 752 mmHg 15%
    05:00 +33°C° 0 mm 4 mps 753 mmHg 16%
    06:00 +34°C° 0 mm 4 mps 753 mmHg 17%
    07:00 +36°C° 0 mm 5 mps 753 mmHg 17%
    08:00 +39°C° 0 mm 6 mps 753 mmHg 16%
    09:00 +42°C° 0 mm 6 mps 753 mmHg 15%
    10:00 +43°C° 0 mm 5 mps 753 mmHg 15%
    11:00 +45°C° 0 mm 5 mps 753 mmHg 14%
    12:00 +46°C° 0 mm 5 mps 752 mmHg 14%
    13:00 +45°C° 0 mm 5 mps 752 mmHg 15%
    14:00 +45°C° 0 mm 5 mps 752 mmHg 15%
    15:00 +45°C° 0 mm 5 mps 752 mmHg 16%
    16:00 +42°C° 0 mm 5 mps 752 mmHg 20%
    17:00 +40°C° 0 mm 5 mps 752 mmHg 25%
    18:00 +36°C° 0 mm 6 mps 752 mmHg 30%
    19:00 +34°C° 0 mm 5 mps 753 mmHg 37%
    20:00 +30°C° 0 mm 5 mps 753 mmHg 44%
    21:00 +28°C° 0 mm 5 mps 753 mmHg 51%
    22:00 +27°C° 0 mm 5 mps 754 mmHg 53%
    23:00 +27°C° 0 mm 5 mps 754 mmHg 56%

    Tomorrow, 20 January, Saturday

    Time Temperature Precipitation Wind Pressure Humidity
    00:00 +26°C° 0 mm 5 mps 754 mmHg 58%
    01:00 +26°C° 0.1 mm 5 mps 754 mmHg 60%
    02:00 +25°C° 0.1 mm 5 mps 754 mmHg 62%
    03:00 +25°C° 0.1 mm 4 mps 754 mmHg 65%
    04:00 +25°C° 0.1 mm 5 mps 754 mmHg 67%
    05:00 +25°C° 0.1 mm 5 mps 754 mmHg 69%
    06:00 +23°C° 0.1 mm 5 mps 754 mmHg 72%
    07:00 +26°C° 0 mm 5 mps 755 mmHg 66%
    08:00 +27°C° 0 mm 5 mps 755 mmHg 60%
    09:00 +29°C° 0 mm 5 mps 755 mmHg 54%
    10:00 +30°C° 0 mm 5 mps 755 mmHg 49%
    11:00 +32°C° 0 mm 5 mps 754 mmHg 44%
    12:00 +34°C° 0 mm 5 mps 754 mmHg 40%
    13:00 +34°C° 0 mm 5 mps 754 mmHg 38%
    14:00 +34°C° 0 mm 5 mps 753 mmHg 37%
    15:00 +35°C° 0 mm 5 mps 753 mmHg 35%
    16:00 +33°C° 0 mm 6 mps 753 mmHg 40%
    17:00 +32°C° 0 mm 6 mps 753 mmHg 45%
    18:00 +29°C° 0 mm 6 mps 753 mmHg 50%
    19:00 +28°C° 0 mm 6 mps 753 mmHg 53%
    20:00 +27°C° 0 mm 6 mps 753 mmHg 55%
    21:00 +26°C° 0 mm 5 mps 754 mmHg 58%
    22:00 +26°C° 0 mm 5 mps 753 mmHg 61%
    23:00 +25°C° 0 mm 5 mps 753 mmHg 65%

    Day after tomorrow, 21 January, Sunday

    Time Temperature Precipitation Wind Pressure Humidity
    00:00 +23°C° 0 mm 6 mps 753 mmHg 68%
    01:00 +23°C° 0 mm 5 mps 753 mmHg 69%
    02:00 +23°C° 0 mm 4 mps 752 mmHg 70%
    03:00 +22°C° 0 mm 3 mps 752 mmHg 71%
    04:00 +24°C° 0 mm 3 mps 752 mmHg 70%
    05:00 +24°C° 0 mm 3 mps 753 mmHg 69%
    06:00 +24°C° 0 mm 3 mps 753 mmHg 68%
    07:00 +26°C° 0 mm 3 mps 753 mmHg 62%
    08:00 +27°C° 0 mm 3 mps 753 mmHg 56%
    09:00 +28°C° 0 mm 3 mps 753 mmHg 50%
    10:00 +30°C° 0 mm 4 mps 753 mmHg 46%
    11:00 +32°C° 0 mm 4 mps 753 mmHg 42%
    12:00 +34°C° 0 mm 5 mps 752 mmHg 38%
    13:00 +33°C° 0 mm 5 mps 752 mmHg 38%
    14:00 +33°C° 0 mm 5 mps 752 mmHg 38%
    15:00 +33°C° 0 mm 6 mps 751 mmHg 38%
    16:00 +30°C° 0 mm 6 mps 752 mmHg 43%
    17:00 +29°C° 0 mm 6 mps 752 mmHg 47%
    18:00 +28°C° 0 mm 6 mps 752 mmHg 52%
    19:00 +26°C° 0 mm 5 mps 753 mmHg 58%
    20:00 +23°C° 0 mm 5 mps 753 mmHg 65%
    21:00 +22°C° 0 mm 5 mps 754 mmHg 72%
    22:00 +21°C° 0 mm 5 mps 753 mmHg 74%
    23:00 +21°C° 0 mm 4 mps 753 mmHg 77%

    22 January, Monday

    Time Temperature Precipitation Wind Pressure Humidity
    00:00 +20°C° 0 mm 4 mps 753 mmHg 79%
    01:00 +19°C° 0 mm 4 mps 753 mmHg 81%
    02:00 +19°C° 0 mm 4 mps 753 mmHg 82%
    03:00 +18°C° 0 mm 4 mps 753 mmHg 83%
    04:00 +18°C° 0 mm 4 mps 753 mmHg 82%
    05:00 +18°C° 0 mm 4 mps 754 mmHg 80%
    06:00 +18°C° 0 mm 3 mps 754 mmHg 79%
    07:00 +20°C° 0 mm 4 mps 754 mmHg 69%
    08:00 +22°C° 0 mm 4 mps 754 mmHg 59%
    09:00 +25°C° 0 mm 4 mps 755 mmHg 48%
    10:00 +26°C° 0 mm 4 mps 754 mmHg 44%
    11:00 +27°C° 0 mm 4 mps 754 mmHg 41%
    12:00 +29°C° 0 mm 5 mps 754 mmHg 37%
    13:00 +29°C° 0 mm 5 mps 753 mmHg 38%
    14:00 +29°C° 0 mm 6 mps 753 mmHg 39%
    15:00 +28°C° 0 mm 6 mps 753 mmHg 39%
    16:00 +27°C° 0 mm 6 mps 753 mmHg 44%
    17:00 +26°C° 0 mm 6 mps 753 mmHg 49%
    18:00 +23°C° 0 mm 6 mps 754 mmHg 54%
    19:00 +22°C° 0 mm 6 mps 754 mmHg 60%
    20:00 +21°C° 0 mm 5 mps 754 mmHg 66%
    21:00 +19°C° 0 mm 5 mps 755 mmHg 72%
    22:00 +19°C° 0 mm 5 mps 755 mmHg 74%
    23:00 +17°C° 0 mm 5 mps 755 mmHg 76%

    23 January, Tuesday

    Time Temperature Precipitation Wind Pressure Humidity
    00:00 +18°C° 0 mm 4 mps 754 mmHg 78%
    01:00 +18°C° 0 mm 4 mps 754 mmHg 80%
    02:00 +17°C° 0 mm 4 mps 754 mmHg 82%
    03:00 +17°C° 0 mm 4 mps 754 mmHg 83%
    04:00 +17°C° 0 mm 4 mps 754 mmHg 82%
    05:00 +17°C° 0 mm 4 mps 755 mmHg 82%
    06:00 +17°C° 0 mm 4 mps 755 mmHg 81%
    07:00 +19°C° 0 mm 4 mps 755 mmHg 70%
    08:00 +21°C° 0 mm 4 mps 755 mmHg 60%
    09:00 +24°C° 0 mm 3 mps 756 mmHg 50%
    10:00 +25°C° 0 mm 4 mps 755 mmHg 46%
    11:00 +27°C° 0 mm 5 mps 755 mmHg 42%
    12:00 +28°C° 0 mm 5 mps 754 mmHg 38%
    13:00 +28°C° 0 mm 5 mps 754 mmHg 38%
    14:00 +28°C° 0 mm 6 mps 754 mmHg 38%
    15:00 +29°C° 0 mm 6 mps 753 mmHg 39%
    16:00 +27°C° 0 mm 6 mps 753 mmHg 42%
    17:00 +26°C° 0 mm 6 mps 754 mmHg 46%
    18:00 +24°C° 0 mm 6 mps 754 mmHg 49%
    19:00 +23°C° 0 mm 5 mps 754 mmHg 56%
    20:00 +21°C° 0 mm 5 mps 754 mmHg 62%
    21:00 +20°C° 0 mm 5 mps 754 mmHg 68%
    22:00 +19°C° 0 mm 4 mps 754 mmHg 71%
    23:00 +19°C° 0 mm 4 mps 754 mmHg 73%

    24 January, Wednesday

    Time Temperature Precipitation Wind Pressure Humidity
    00:00 +19°C° 0 mm 4 mps 754 mmHg 75%
    01:00 +18°C° 0 mm 4 mps 754 mmHg 77%
    02:00 +18°C° 0 mm 4 mps 753 mmHg 78%
    03:00 +18°C° 0 mm 4 mps 753 mmHg 80%
    04:00 +18°C° 0 mm 4 mps 753 mmHg 79%
    05:00 +18°C° 0 mm 4 mps 754 mmHg 79%
    06:00 +18°C° 0 mm 4 mps 754 mmHg 78%
    07:00 +20°C° 0 mm 4 mps 754 mmHg 68%
    08:00 +22°C° 0 mm 4 mps 754 mmHg 59%
    09:00 +25°C° 0 mm 4 mps 754 mmHg 49%
    10:00 +27°C° 0 mm 4 mps 754 mmHg 44%
    11:00 +28°C° 0 mm 4 mps 753 mmHg 38%
    12:00 +30°C° 0 mm 4 mps 753 mmHg 33%
    13:00 +30°C° 0 mm 5 mps 753 mmHg 33%
    14:00 +30°C° 0 mm 6 mps 752 mmHg 32%
    15:00 +30°C° 0 mm 6 mps 752 mmHg 32%
    16:00 +29°C° 0 mm 6 mps 752 mmHg 38%
    17:00 +27°C° 0 mm 6 mps 752 mmHg 43%
    18:00 +26°C° 0 mm 6 mps 753 mmHg 49%
    19:00 +23°C° 0 mm 6 mps 753 mmHg 55%
    20:00 +22°C° 0 mm 6 mps 753 mmHg 61%
    21:00 +20°C° 0 mm 6 mps 754 mmHg 67%
    22:00 +20°C° 0 mm 5 mps 753 mmHg 69%
    23:00 +19°C° 0 mm 5 mps 753 mmHg 71%
    Show more